User: anonymous   Login
Location: Unspecified
(0.0000°N, 0.0000°E)
Time: 00:25:06
(UTC+00:00)
Language:

ETS 8 - Orbit

View from above orbital plane
View from above orbital plane
View from above satellite
View from above satellite

Ground track
Ground track

The orbit data is extracted from the following two-line orbital elements,

1 29656U 06059A   16126.14532762 -.00000253  00000-0  00000+0 0  9994
2 29656   4.8254  61.6232 0006350 346.1155  13.7226  1.00272854 34391
Epoch (UTC): 05 May 2016 03:29:16
Eccentricity: 0.0006350
inclination: 4.8254°
perigee height: 35759 km
apogee height: 35812 km
right ascension of ascending node: 61.6232°
argument of perigee: 346.1155°
revolutions per day: 1.00272854
mean anomaly at epoch: 13.7226°
orbit number at epoch: 3439

The dashed part of the orbit path shows where the satellite is in the earth's shadow,  

DLR